Location: Laura�t
(43.9341°N, 0.2497°E)
Time: 23:22:42
(UTC+00:00)

SL-08 RB Rocket - Pass Details

Date: 03 March 2021
Orbit: 647 x 684 km, 97.8° (Epoch: 17 April)

Event Time Altitude Azimuth Distance (km) Brightness Sun altitude
Rises 18:49:42 0° 155° (SSE) 2,962 6.8 -11.5°
Reaches altitude 10° 18:51:55 10° 151° (SSE) 2,060 5.9 -11.9°
Maximum altitude 18:56:19 57° 73° (ENE) 777 3.7 -12.7°
Drops below altitude 10° 19:00:48 10° 355° (N) 2,097 6.4 -13.5°
Sets 19:03:05 0° 352° (N) 3,021 7.3 -13.9°
